FW2969 Weather Reports


time (UTC)temp
C
wind
direction
speed
KPH
gust
KPH
rain 1hr
cm
rain 24hr
cm
rain mn
cm
humidity
%
barometer
mb
20260509031557 16 59 0.0 1.6 0.00 0.00 0.00 52 1014.9
20260509030056 16 57 0.0 0.0 0.00 0.00 0.00 51 1014.8
20260509024559 17 57 0.0 0.0 0.00 0.00 0.00 50 1014.8
20260509023108 17 57 0.0 1.6 0.00 0.00 0.00 49 1014.7
20260509021555 18 57 0.0 0.0 0.00 0.00 0.00 46 1014.5
20260509020058 17 57 0.0 0.0 0.00 0.00 0.00 47 1014.6
20260509014552 17 58 0.0 0.0 0.00 0.00 0.00 49 1014.4
20260509013055 17 58 0.0 1.6 0.00 0.00 0.00 49 1014.4
20260509011555 17 49 0.0 3.2 0.00 0.00 0.00 49 1014.5
20260509010052 17 75 0.0 1.6 0.00 0.00 0.00 49 1014.5
20260509004546 17 75 0.0 0.0 0.00 0.00 0.00 49 1014.7
20260509003045 17 49 0.0 0.0 0.00 0.00 0.00 50 1014.8
20260509001544 17 48 0.0 0.0 0.00 0.00 0.00 51 1014.7
20260509000043 17 48 0.0 0.0 0.00 0.00 0.00 51 1014.7
20260508234541 17 65 0.0 1.6 0.00 0.00 0.00 54 1014.9
20260508233039 16 64 0.0 3.2 0.00 0.00 0.00 57 1015.0
20260508231538 17 36 0.0 1.6 0.00 0.00 0.00 56 1014.9
20260508230042 17 36 0.0 0.0 0.00 0.00 0.00 56 1015.1
20260508224535 17 36 0.0 1.6 0.00 0.00 0.00 57 1015.2
20260508223032 17 36 0.0 1.6 0.00 0.00 0.00 58 1015.4
20260508221531 16 36 0.0 0.0 0.00 0.00 0.00 58 1015.5
20260508220030 17 35 0.0 0.0 0.00 0.00 0.00 58 1015.5
20260508214532 16 35 0.0 1.6 0.00 0.00 0.00 59 1015.6
20260508213126 16 30 0.0 0.0 0.00 0.00 0.00 61 1015.7
20260508211535 16 30 0.0 1.6 0.00 0.00 0.00 61 1015.6
20260508210026 17 30 0.0 0.0 0.00 0.00 0.00 61 1015.8
20260508204522 17 30 0.0 0.0 0.00 0.00 0.00 60 1016.0
20260508203022 17 30 0.0 0.0 0.00 0.00 0.00 58 1016.1
20260508201522 17 30 0.0 3.2 0.00 0.00 0.00 57 1016.1
20260508200023 17 72 0.0 4.8 0.00 0.00 0.00 55 1016.2
20260508194529 18 45 0.0 1.6 0.00 0.00 0.00 53 1016.3
20260508193019 17 49 0.0 6.4 0.00 0.00 0.00 49 1016.5
20260508191526 17 10 0.0 8.0 0.00 0.00 0.00 50 1016.5
20260508190018 17 41 0.0 1.6 0.00 0.00 0.00 53 1016.7
20260508184518 17 27 0.0 4.8 0.00 0.00 0.00 51 1016.8
20260508183023 17 38 0.0 6.4 0.00 0.00 0.00 49 1016.8
20260508181516 17 13 1.6 8.0 0.00 0.00 0.00 48 1016.8
20260508180016 17 331 0.0 4.8 0.00 0.00 0.00 47 1016.8
20260508174515 17 334 1.6 8.0 0.00 0.00 0.00 47 1016.6
20260508173016 17 40 1.6 12.9 0.00 0.00 0.00 46 1016.4
20260508171515 17 319 1.6 14.5 0.00 0.00 0.00 46 1016.3
20260508170014 17 334 3.2 11.3 0.00 0.00 0.00 47 1016.1
20260508164514 17 59 1.6 9.7 0.00 0.00 0.00 49 1015.9
20260508163016 18 1 1.6 8.0 0.00 0.00 0.00 48 1015.8
20260508161512 18 319 1.6 9.7 0.00 0.00 0.00 47 1015.7
20260508160011 18 318 0.0 9.7 0.00 0.00 0.00 47 1015.6
20260508154532 20 321 1.6 11.3 0.00 0.00 0.00 45 1015.5
20260508153012 20 338 1.6 9.7 0.00 0.00 0.00 47 1015.3
20260508151512 21 340 1.6 12.9 0.00 0.00 0.00 47 1015.3
20260508150007 22 360 3.2 12.9 0.00 0.00 0.00 43 1015.4
20260508144505 22 328 0.0 11.3 0.00 0.00 0.00 44 1015.6
20260508143003 22 38 0.0 16.1 0.00 0.00 0.00 44 1015.4
20260508141504 22 298 0.0 9.7 0.00 0.00 0.00 44 1015.4
20260508140003 22 320 1.6 9.7 0.00 0.00 0.00 43 1015.4
20260508134501 22 293 0.0 11.3 0.00 0.00 0.00 42 1015.4
20260508133102 23 294 1.6 11.3 0.00 0.00 0.00 41 1015.4
20260508131608 22 307 3.2 11.3 0.00 0.00 0.00 39 1015.5
20260508130056 22 303 1.6 9.7 0.00 0.00 0.00 40 1015.6
20260508124555 22 281 4.8 14.5 0.00 0.00 0.00 43 1015.8
20260508123055 22 360 3.2 14.5 0.00 0.00 0.00 50 1015.9
20260508121552 22 277 4.8 16.1 0.00 0.00 0.00 49 1016.0
20260508120050 22 255 3.2 12.9 0.00 0.00 0.00 47 1016.0
20260508114550 21 259 6.4 19.3 0.00 0.00 0.00 48 1016.1
20260508113048 21 314 4.8 16.1 0.00 0.00 0.00 55 1016.1
20260508111551 21 282 3.2 14.5 0.00 0.00 0.00 51 1016.4
20260508110047 21 265 4.8 12.9 0.00 0.00 0.00 59 1016.5
20260508104545 21 245 3.2 12.9 0.00 0.00 0.00 59 1016.5
20260508103045 21 250 4.8 12.9 0.00 0.00 0.00 62 1016.6
20260508101544 20 292 4.8 14.5 0.00 0.00 0.00 63 1016.7
20260508100058 20 319 3.2 12.9 0.00 0.00 0.00 64 1016.8
20260508094544 20 284 6.4 12.9 0.00 0.00 0.00 64 1017.0
20260508093042 20 245 3.2 12.9 0.00 0.00 0.00 71 1017.1
20260508091545 20 288 3.2 9.7 0.00 0.00 0.00 69 1017.3
20260508090106 20 255 3.2 8.0 0.00 0.00 0.00 61 1017.3
20260508084544 19 285 3.2 9.7 0.00 0.00 0.00 60 1017.4
20260508083039 18 280 0.0 4.8 0.00 0.00 0.00 62 1017.6
20260508081553 18 342 0.0 9.7 0.00 0.00 0.00 69 1017.6
20260508080040 19 291 3.2 14.5 0.00 0.00 0.00 63 1017.8
20260508074540 21 197 0.0 8.0 0.00 0.00 0.00 48 1017.7
20260508073040 21 84 1.6 11.3 0.00 0.00 0.00 35 1017.5
20260508071531 21 131 1.6 14.5 0.00 0.00 0.00 40 1017.3
20260508070027 21 107 1.6 9.7 0.00 0.00 0.00 40 1017.3
20260508064527 20 108 3.2 9.7 0.00 0.00 0.00 42 1017.3
20260508063022 20 92 0.0 16.1 0.00 0.00 0.00 42 1017.3
20260508061524 20 124 4.8 14.5 0.00 0.00 0.00 43 1017.4
20260508060017 19 130 3.2 9.7 0.00 0.00 0.00 44 1017.2
20260508054515 18 150 3.2 16.1 0.00 0.00 0.00 46 1017.3
20260508053016 18 155 1.6 14.5 0.00 0.00 0.00 47 1017.2
20260508051509 18 195 1.6 22.5 0.00 0.00 0.00 47 1017.2
20260508050007 17 118 3.2 11.3 0.00 0.00 0.00 48 1017.1
20260508044505 17 88 3.2 11.3 0.00 0.00 0.00 50 1017.2
20260508043100 16 26 1.6 8.0 0.00 0.00 0.00 52 1017.2
20260508041556 16 89 0.0 3.2 0.00 0.00 0.00 54 1017.0
20260508040058 15 81 0.0 6.4 0.00 0.00 0.00 54 1017.0
20260508034553 15 59 0.0 4.8 0.00 0.00 0.00 55 1016.8
20260508033058 15 50 1.6 9.7 0.00 0.00 0.00 54 1016.6